CZ-6A DEB, 55525

Orbit data source: Space-Track

CZ-6A DEB, 55525 is space debris in SSO originally from a launch on Fri, 11 Nov 2022 UTC launched from the Taiyaun Space Center, China (TSC). Debris objects in space refer to the collection of defunct objects orbiting the Earth. Examples of debris include non-operational satellites, rocket bodies, and fragments generated from explosions, collisions, or faulty payload assembly.

Loading next visibility...
Identifier
55525, 2022-151XX
Orbit
SSO
Country
Flag of CNCN / PRC
Related business
Manufacturer
SAST
Mission
Spacecraft
Bus & Motor
Unknown
Mass
Unknown
Launch date (UTC)
2022-11-11 (4 years ago)
Launch vehicle
Unknown
Launch site
Taiyaun Space Center, China (TSC)
Object type
Payload
Rocket body
Debris
Shape & HBR
Unknown shape, 0.1 m
Radar Cross Section
Small (<0.1 m²)

Expand to show TLE details & history
Last TLE update: 2 days ago

TLE from 2 days ago
0 CZ-6A DEB
1 55525U 22151XX  26171.25063572  .00000446  00000-0  30492-3 0  9995
2 55525  98.9087 157.5524 0095452  37.5716 323.2070 14.02533527178913
Epoch: 2026-06-20T06:00Z
TLE epoch observation values (Epoch: 2026-06-20T06:00:54.926Z)
Latitude
0.00003°
Longitude
158.85559°
Altitude
832.63 km
Speed
7.465 km/s
True Right ascension
10h 30m 12s
True Declination
0° 00' 00"
Sunlit
Object was in daylight at epoch
Visualization orbit readout
Latitude
Unknown
Longitude
Unknown
Altitude
Unknown
Speed
Unknown
Apparent Right ascension
Unknown
Apparent Declination
Unknown
Sunlit
N/A
Visualization observer readout
Local Sidereal Time
00:34:40
Azimuth
Unknown
Elevation
Unknown
Doppler factor
Unknown
Orbital elements
Apogee altitude
951.528 km
Perigee altitude
812.925 km
Semi-major axis
7,260.363 km
Eccentricity
0.00955
Inclination
98.9087°
RAAN
157.5524°
Arg. of periapsis
37.5716°
True anomaly
322.54559°
Mean anomaly
323.207°
Eccentric anomaly
322.87693°
Mean motion
3.50837 °/min
Orbital period
102.61 mins
BSTAR
0.00030492
Loading maneuver chart data...
Computing Atmospheric mass density...
Loading historical data...
Loading historical data...
Loading historical data...
Loading historical data...
Loading historical data...
Loading historical data...
Loading historical data...

Documentation

Showing up to 5 results
|